Overview Statistics Trail Chart Weather Telemetry Raw packets
 

This is the latest recevied weather packets stored in our database for station/object EA8EE-7. If no packets are shown the sender has not sent any weather packets the latest 10 day(s).

<< 12 13 14 15 16 17 18 >>
Time Temp. Humidity Pressure Rain* Wind** Luminosity Snow
1788441019 37.22° C 32% 1020.4 hPa - - - -
1788440345 36.67° C 34% 1023.9 hPa - - - -
1788439745 36.67° C 34% 1022.6 hPa - - - -
1788439145 36.11° C 34% 1023.2 hPa - - - -
1788438545 36.11° C 34% 992.2 hPa - - - -
1788437945 36.67° C 34% 1024.6 hPa - - - -
1788437344 36.67° C 34% 1023.6 hPa - - - -
1788436692 36.11° C 33% 1025.8 hPa - - - -
1788435940 35.56° C 35% 1022 hPa - - - -
1788435340 35° C 36% 1024.7 hPa - - - -
1788434740 34.44° C 36% 1024.4 hPa - - - -
1788434140 34.44° C 37% 1028.2 hPa - - - -
1788433536 34.44° C 37% 1028.1 hPa - - - -
1788433257 34.44° C 37% 1020.8 hPa - - - -
1788432936 34.44° C 37% 1020.8 hPa - - - -
1788431797 34.44° C 37% 1028.9 hPa - - - -
1788431197 34.44° C 36% 1029.3 hPa - - - -
1788430597 35.56° C 35% 1029.6 hPa - - - -
1788429997 36.11° C 34% 1026.9 hPa - - - -
1788429397 36.11° C 35% 1028.4 hPa - - - -
1788428797 36.11° C 35% 1028.1 hPa - - - -
1788428197 36.11° C 35% 1028.1 hPa - - - -
1788427597 36.11° C 35% 1027.4 hPa - - - -
1788426997 36.11° C 35% 1027 hPa - - - -
1788426397 35.56° C 36% 1026.8 hPa - - - -

* Rain since midnight (hover to see other rain measurements)
** Current wind speed in m/s (hover to see current wind gust speed)